When you browse on this site, cookies collect data to enhance your experience and personalize the content and advertising you see.
Visit our Privacy Policy to learn more. By continuing to use the site, you agree to this use of cookies and data.
  • en France
  • Liste des pays
  • À 7 jours
  • Température de l'eau
  • Carte satellitaire
  • Carte météo
  • Widgets météo
  • user-avatar
    Se connecter

    Météo par heure à Nantes

    Ce jour, 20 Mars, Mercredi

    Heure Température Précipitation Vent Pression Humidité
    00:00 +6°C° 0 mm 0 m/s 773 mmHg 92%
    01:00 +6°C° 0 mm 0 m/s 773 mmHg 92%
    02:00 +5°C° 0 mm 0 m/s 773 mmHg 92%
    03:00 +5°C° 0 mm 0 m/s 773 mmHg 92%
    04:00 +5°C° 0 mm 0 m/s 773 mmHg 92%
    05:00 +6°C° 0 mm 1 m/s 773 mmHg 92%
    06:00 +5°C° 0 mm 1 m/s 773 mmHg 92%
    07:00 +7°C° 0 mm 1 m/s 773 mmHg 88%
    08:00 +8°C° 0 mm 0 m/s 774 mmHg 85%
    09:00 +10°C° 0 mm 0 m/s 774 mmHg 81%
    10:00 +11°C° 0 mm 0 m/s 774 mmHg 77%
    11:00 +13°C° 0 mm 0 m/s 774 mmHg 74%
    12:00 +14°C° 0 mm 0 m/s 774 mmHg 70%
    13:00 +15°C° 0.1 mm 1 m/s 774 mmHg 72%
    14:00 +14°C° 0.1 mm 1 m/s 774 mmHg 74%
    15:00 +14°C° 0.1 mm 1 m/s 773 mmHg 77%
    16:00 +13°C° 0.1 mm 1 m/s 773 mmHg 80%
    17:00 +13°C° 0.1 mm 1 m/s 773 mmHg 83%
    18:00 +12°C° 0.1 mm 1 m/s 773 mmHg 87%
    19:00 +12°C° 0 mm 1 m/s 773 mmHg 88%
    20:00 +11°C° 0 mm 1 m/s 774 mmHg 88%
    21:00 +11°C° 0 mm 1 m/s 774 mmHg 89%
    22:00 +10°C° 0 mm 1 m/s 774 mmHg 90%
    23:00 +9°C° 0 mm 1 m/s 774 mmHg 91%

    Demain, 21 Mars, Jeudi

    Heure Température Précipitation Vent Pression Humidité
    00:00 +8°C° 0 mm 1 m/s 774 mmHg 92%
    01:00 +8°C° 0 mm 1 m/s 774 mmHg 92%
    02:00 +6°C° 0 mm 2 m/s 774 mmHg 93%
    03:00 +6°C° 0 mm 2 m/s 774 mmHg 93%
    04:00 +6°C° 0 mm 2 m/s 774 mmHg 94%
    05:00 +6°C° 0 mm 2 m/s 773 mmHg 94%
    06:00 +5°C° 0 mm 2 m/s 773 mmHg 94%
    07:00 +7°C° 0 mm 2 m/s 774 mmHg 90%
    08:00 +9°C° 0 mm 2 m/s 774 mmHg 87%
    09:00 +12°C° 0 mm 2 m/s 774 mmHg 83%
    10:00 +12°C° 0 mm 3 m/s 773 mmHg 78%
    11:00 +13°C° 0 mm 3 m/s 773 mmHg 73%
    12:00 +16°C° 0 mm 3 m/s 773 mmHg 68%
    13:00 +16°C° 0 mm 3 m/s 772 mmHg 67%
    14:00 +16°C° 0 mm 3 m/s 772 mmHg 67%
    15:00 +16°C° 0 mm 3 m/s 771 mmHg 67%
    16:00 +14°C° 0 mm 3 m/s 771 mmHg 72%
    17:00 +13°C° 0 mm 3 m/s 771 mmHg 78%
    18:00 +13°C° 0 mm 2 m/s 770 mmHg 83%
    19:00 +12°C° 0 mm 2 m/s 771 mmHg 85%
    20:00 +10°C° 0 mm 2 m/s 771 mmHg 88%
    21:00 +9°C° 0 mm 2 m/s 771 mmHg 90%
    22:00 +8°C° 0 mm 2 m/s 771 mmHg 90%
    23:00 +7°C° 0 mm 2 m/s 770 mmHg 90%

    Après-demain, 22 Mars, Vendredi

    Heure Température Précipitation Vent Pression Humidité
    00:00 +7°C° 0 mm 2 m/s 770 mmHg 91%
    01:00 +6°C° 0 mm 2 m/s 770 mmHg 90%
    02:00 +6°C° 0 mm 2 m/s 769 mmHg 90%
    03:00 +5°C° 0 mm 2 m/s 769 mmHg 89%
    04:00 +5°C° 0 mm 2 m/s 769 mmHg 90%
    05:00 +4°C° 0 mm 2 m/s 769 mmHg 90%
    06:00 +4°C° 0 mm 2 m/s 769 mmHg 91%
    07:00 +6°C° 0 mm 2 m/s 769 mmHg 86%
    08:00 +8°C° 0 mm 2 m/s 769 mmHg 81%
    09:00 +10°C° 0 mm 2 m/s 769 mmHg 76%
    10:00 +12°C° 0 mm 2 m/s 769 mmHg 72%
    11:00 +14°C° 0 mm 2 m/s 769 mmHg 67%
    12:00 +15°C° 0 mm 2 m/s 769 mmHg 63%
    13:00 +16°C° 0 mm 2 m/s 768 mmHg 63%
    14:00 +16°C° 0 mm 3 m/s 768 mmHg 63%
    15:00 +16°C° 0 mm 3 m/s 767 mmHg 62%
    16:00 +15°C° 0 mm 2 m/s 767 mmHg 68%
    17:00 +13°C° 0 mm 2 m/s 767 mmHg 74%
    18:00 +12°C° 0 mm 1 m/s 767 mmHg 80%
    19:00 +10°C° 0 mm 1 m/s 768 mmHg 82%
    20:00 +9°C° 0 mm 1 m/s 768 mmHg 84%
    21:00 +8°C° 0 mm 1 m/s 769 mmHg 86%
    22:00 +7°C° 0 mm 1 m/s 769 mmHg 87%
    23:00 +7°C° 0 mm 1 m/s 769 mmHg 87%

    23 Mars, Samedi

    Heure Température Précipitation Vent Pression Humidité
    00:00 +7°C° 0 mm 1 m/s 769 mmHg 87%
    01:00 +7°C° 0 mm 1 m/s 768 mmHg 87%
    02:00 +6°C° 0 mm 1 m/s 768 mmHg 87%
    03:00 +6°C° 0 mm 1 m/s 768 mmHg 88%
    04:00 +6°C° 0 mm 1 m/s 768 mmHg 88%
    05:00 +6°C° 0 mm 1 m/s 768 mmHg 89%
    06:00 +6°C° 0 mm 1 m/s 768 mmHg 90%
    07:00 +7°C° 0 mm 2 m/s 768 mmHg 86%
    08:00 +9°C° 0 mm 2 m/s 768 mmHg 82%
    09:00 +12°C° 0 mm 2 m/s 769 mmHg 78%
    10:00 +13°C° 0 mm 2 m/s 768 mmHg 72%
    11:00 +15°C° 0 mm 2 m/s 768 mmHg 67%
    12:00 +17°C° 0 mm 2 m/s 768 mmHg 62%
    13:00 +17°C° 0 mm 2 m/s 768 mmHg 61%
    14:00 +18°C° 0 mm 2 m/s 767 mmHg 59%
    15:00 +18°C° 0 mm 2 m/s 767 mmHg 58%
    16:00 +16°C° 0 mm 1 m/s 767 mmHg 64%
    17:00 +15°C° 0 mm 1 m/s 767 mmHg 71%
    18:00 +13°C° 0 mm 1 m/s 767 mmHg 77%
    19:00 +12°C° 0 mm 1 m/s 767 mmHg 80%
    20:00 +11°C° 0 mm 1 m/s 768 mmHg 82%
    21:00 +10°C° 0 mm 1 m/s 768 mmHg 85%
    22:00 +9°C° 0 mm 1 m/s 768 mmHg 86%
    23:00 +9°C° 0 mm 1 m/s 768 mmHg 87%

    24 Mars, Dimanche

    Heure Température Précipitation Vent Pression Humidité
    00:00 +9°C° 0 mm 1 m/s 768 mmHg 87%
    01:00 +8°C° 0 mm 1 m/s 768 mmHg 88%
    02:00 +8°C° 0 mm 1 m/s 768 mmHg 89%
    03:00 +8°C° 0 mm 1 m/s 768 mmHg 89%
    04:00 +7°C° 0 mm 2 m/s 768 mmHg 90%
    05:00 +6°C° 0 mm 2 m/s 768 mmHg 90%
    06:00 +6°C° 0 mm 2 m/s 768 mmHg 91%
    07:00 +8°C° 0 mm 2 m/s 769 mmHg 88%
    08:00 +9°C° 0 mm 3 m/s 769 mmHg 84%
    09:00 +11°C° 0 mm 3 m/s 770 mmHg 81%
    10:00 +12°C° 0 mm 3 m/s 770 mmHg 78%
    11:00 +14°C° 0 mm 4 m/s 770 mmHg 75%
    12:00 +15°C° 0 mm 4 m/s 770 mmHg 72%
    13:00 +15°C° 0 mm 4 m/s 770 mmHg 71%
    14:00 +15°C° 0 mm 4 m/s 770 mmHg 70%
    15:00 +17°C° 0 mm 4 m/s 769 mmHg 69%
    16:00 +14°C° 0 mm 4 m/s 770 mmHg 74%
    17:00 +13°C° 0 mm 4 m/s 770 mmHg 79%
    18:00 +11°C° 0 mm 4 m/s 770 mmHg 84%
    19:00 +10°C° 0 mm 4 m/s 771 mmHg 87%
    20:00 +8°C° 0 mm 4 m/s 771 mmHg 89%
    21:00 +7°C° 0 mm 4 m/s 772 mmHg 92%
    22:00 +6°C° 0 mm 4 m/s 772 mmHg 92%
    23:00 +5°C° 0 mm 5 m/s 772 mmHg 91%

    25 Mars, Lundi

    Heure Température Précipitation Vent Pression Humidité
    00:00 +5°C° 0 mm 5 m/s 773 mmHg 91%
    01:00 +4°C° 0 mm 4 m/s 773 mmHg 92%
    02:00 +3°C° 0 mm 4 m/s 773 mmHg 92%
    03:00 +3°C° 0 mm 4 m/s 773 mmHg 92%
    04:00 +1°C° 0 mm 4 m/s 773 mmHg 93%
    05:00 +2°C° 0 mm 3 m/s 773 mmHg 93%
    06:00 +2°C° 0 mm 3 m/s 773 mmHg 94%
    07:00 +4°C° 0 mm 4 m/s 774 mmHg 87%
    08:00 +6°C° 0 mm 4 m/s 774 mmHg 81%
    09:00 +8°C° 0 mm 5 m/s 774 mmHg 74%
    10:00 +9°C° 0 mm 5 m/s 774 mmHg 71%
    11:00 +10°C° 0 mm 5 m/s 774 mmHg 68%
    12:00 +12°C° 0 mm 5 m/s 774 mmHg 65%
    13:00 +13°C° 0 mm 6 m/s 773 mmHg 65%
    14:00 +13°C° 0 mm 6 m/s 773 mmHg 65%
    15:00 +13°C° 0 mm 6 m/s 773 mmHg 65%
    16:00 +12°C° 0 mm 5 m/s 773 mmHg 70%
    17:00 +10°C° 0 mm 5 m/s 773 mmHg 74%
    18:00 +10°C° 0 mm 4 m/s 773 mmHg 78%
    19:00 +8°C° 0 mm 5 m/s 773 mmHg 78%
    20:00 +7°C° 0 mm 5 m/s 774 mmHg 78%
    21:00 +6°C° 0 mm 5 m/s 775 mmHg 78%
    22:00 +5°C° 0 mm 5 m/s 775 mmHg 79%
    23:00 +5°C° 0 mm 5 m/s 775 mmHg 80%
    Voir plus